Regional Weather Roundup
Issued by NWS

Home | Current Version | Previous Version | Text Only | Print | Product List | Glossary Off
Versions: 1 2 3 4 5 6 7 8 9 10 11 12 13 14 15 16 17 18 19 20 21 22 23 24 25 26 27 28 29 30 31 32 33 34 35 36 37 38 39 40 41 42 43 44 45 46 47 48 49 50

000
ASUS43 KOAX 292302
RWRNE

WEATHER ROUNDUP FOR NEBRASKA
NATIONAL WEATHER SERVICE OMAHA NE
600 PM CDT WED JUL 29 2015

NOTES: SATELLITE DATA IS BEING USED TO AUGMENT CLOUD COVER ABOVE
       12000 FEET.
       "FAIR" INDICATES FEW OR NO CLOUDS BELOW 12,000 FEET WITH NO
       SIGNIFICANT WEATHER AND/OR OBSTRUCTIONS TO VISIBILITY.

  * THESE STATIONS DO NOT REPORT WEATHER SUCH AS RAIN...SNOW OR FOG.

NEZ001>004-019>022-054>056-300000-
NEBRASKA PANHANDLE

CITY           SKY/WX    TMP DP  RH WIND       PRES   REMARKS
SCOTTSBLUFF    MOSUNNY   86  48  26 S5        30.19F
ALLIANCE       SUNNY     85  49  28 S14G23    30.20F
CHADRON        SUNNY     85  48  27 N5        30.16F
KIMBALL        MOSUNNY   82  47  29 S15G21    30.25F
SIDNEY         SUNNY     84  46  26 S17G24    30.25F
$$

NEZ057>060-069>072-079>082-300000-
SOUTHWEST NEBRASKA

CITY           SKY/WX    TMP DP  RH WIND       PRES   REMARKS
NORTH PLATTE   SUNNY     83  49  30 S8        30.21F
IMPERIAL       SUNNY     85  44  23 S13       30.23F
MCCOOK         SUNNY     84  51  31 SE8       30.21F
$$

NEZ005>010-023>029-035>040-094-300000-
NORTH CENTRAL NEBRASKA

CITY           SKY/WX    TMP DP  RH WIND       PRES   REMARKS
VALENTINE      MOSUNNY   86  43  22 W10       30.17F
AINSWORTH      SUNNY     85  47  27 SW13      30.19S
BROKEN BOW     SUNNY     83  52  34 SW6       30.21F
O`NEILL        SUNNY     85  49  28 W8        30.17S
ORD            SUNNY     84  50  30 W7        30.17F
$$

NEZ041-046>049-061>064-073>077-083>087-300000-
SOUTH CENTRAL NEBRASKA

CITY           SKY/WX    TMP DP  RH WIND       PRES   REMARKS
GRAND ISLAND   PTSUNNY   83  50  31 VRB3      30.20F
AURORA         PTSUNNY   79  58  48 SW5       30.20S
HASTINGS       PTSUNNY   80  52  37 VRB3      30.21F
KEARNEY *      SUNNY     79  54  41 SE6       30.22S
$$

NEZ011>018-030>034-042>045-300000-
NORTHEAST NEBRASKA

CITY           SKY/WX    TMP DP  RH WIND       PRES   REMARKS
NORFOLK        SUNNY     86  52  30 W6        30.14F
BLAIR          PTSUNNY   81  61  50 SW5       30.16S
COLUMBUS *     MOSUNNY   82  52  34 CALM      30.16S
FREMONT        MOSUNNY   84  51  32 W6        30.16S
TEKAMAH        SUNNY     83  61  47 W6        30.13S
$$

NEZ050>053-065>068-078-088>093-300000-
SOUTHEAST NEBRASKA

CITY           SKY/WX    TMP DP  RH WIND       PRES   REMARKS
LINCOLN        PTSUNNY   82  51  34 NW5       30.18S
OMAHA EPPLEY   PTSUNNY   82  57  42 W7        30.14S
FALLS CITY     MOSUNNY   83  62  49 CALM      30.16S
$$

NEZ044-045-051>053-067-300000-
OMAHA AREA

CITY           SKY/WX    TMP DP  RH WIND       PRES   REMARKS
OMAHA EPPLEY   PTSUNNY   82  57  42 W7        30.14S
BLAIR          PTSUNNY   81  61  50 SW5       30.16S
FREMONT        MOSUNNY   84  51  32 W6        30.16S
OFFUTT AFB     PTSUNNY   80  55  41 W7        30.14S
$$


USA.gov is the U.S. government's official web portal to all federal, state and local government web resources and services.